TimeEST,TemperatureF,Dew PointF,Humidity,Sea Level PressureIn,VisibilityMPH,Wind Direction,Wind SpeedMPH,Gust SpeedMPH,PrecipitationIn,Events,Conditions,WindDirDegrees,DateUTC
12:15 AM,57.2,57.2,100,30.30,7.0,NNE,11.5,-,N/A,,Clear,20,2013-11-06 05:15:00
12:35 AM,57.2,57.2,100,30.30,7.0,NNE,10.4,-,N/A,,Scattered Clouds,20,2013-11-06 05:35:00
12:55 AM,59.0,57.2,94,30.29,7.0,NNE,12.7,17.3,N/A,,Mostly Cloudy,30,2013-11-06 05:55:00
1:15 AM,57.2,57.2,100,30.29,7.0,NNE,12.7,-,N/A,,Scattered Clouds,30,2013-11-06 06:15:00
1:35 AM,57.2,57.2,100,30.28,7.0,North,9.2,-,N/A,,Clear,10,2013-11-06 06:35:00
1:55 AM,57.2,57.2,100,30.27,7.0,NNE,9.2,-,N/A,,Scattered Clouds,20,2013-11-06 06:55:00
2:15 AM,57.2,57.2,100,30.27,7.0,NNE,9.2,-,N/A,,Mostly Cloudy,20,2013-11-06 07:15:00
2:35 AM,57.2,57.2,100,30.27,5.0,NNE,10.4,-,N/A,,Mostly Cloudy,20,2013-11-06 07:35:00
2:55 AM,57.2,57.2,100,30.26,7.0,NNE,12.7,-,N/A,,Mostly Cloudy,20,2013-11-06 07:55:00
3:15 AM,57.2,57.2,100,30.25,7.0,NNE,12.7,18.4,N/A,,Mostly Cloudy,30,2013-11-06 08:15:00
3:35 AM,57.2,57.2,100,30.24,7.0,NNE,11.5,-,N/A,,Mostly Cloudy,20,2013-11-06 08:35:00
3:55 AM,57.2,57.2,100,30.24,7.0,NNE,11.5,18.4,N/A,,Mostly Cloudy,30,2013-11-06 08:55:00
4:15 AM,57.2,57.2,100,30.24,7.0,NNE,12.7,-,N/A,,Mostly Cloudy,30,2013-11-06 09:15:00
4:35 AM,57.2,57.2,100,30.24,5.0,NE,15.0,18.4,N/A,,Overcast,40,2013-11-06 09:35:00
4:55 AM,57.2,57.2,100,30.25,7.0,NNE,13.8,-,N/A,,Overcast,30,2013-11-06 09:55:00
5:15 AM,57.2,57.2,100,30.24,7.0,NNE,12.7,-,N/A,,Mostly Cloudy,20,2013-11-06 10:15:00
5:35 AM,59.0,59.0,100,30.24,7.0,NNE,12.7,-,N/A,,Overcast,30,2013-11-06 10:35:00
5:55 AM,59.0,59.0,100,30.24,7.0,NE,11.5,-,N/A,,Overcast,40,2013-11-06 10:55:00
6:15 AM,59.0,59.0,100,30.24,7.0,NNE,10.4,-,N/A,,Overcast,30,2013-11-06 11:15:00
6:35 AM,57.2,57.2,100,30.25,7.0,NNE,11.5,-,N/A,,Mostly Cloudy,30,2013-11-06 11:35:00
6:55 AM,57.2,57.2,100,30.25,7.0,NNE,10.4,-,N/A,,Scattered Clouds,30,2013-11-06 11:55:00
7:15 AM,59.0,59.0,100,30.25,7.0,NNE,9.2,-,N/A,,Mostly Cloudy,30,2013-11-06 12:15:00
7:35 AM,59.0,59.0,100,30.26,5.0,NNE,10.4,-,N/A,,Overcast,30,2013-11-06 12:35:00
7:55 AM,59.0,59.0,100,30.27,7.0,NNE,9.2,-,N/A,,Overcast,30,2013-11-06 12:55:00
8:15 AM,59.0,59.0,100,30.27,5.0,NE,9.2,-,N/A,,Overcast,40,2013-11-06 13:15:00
8:35 AM,60.8,60.8,100,30.27,7.0,NNE,6.9,-,N/A,,Overcast,30,2013-11-06 13:35:00
8:55 AM,60.8,60.8,100,30.27,5.0,NE,8.1,-,N/A,,Overcast,50,2013-11-06 13:55:00
9:15 AM,62.6,59.0,88,30.27,5.0,ENE,4.6,-,N/A,,Overcast,60,2013-11-06 14:15:00
9:35 AM,62.6,60.8,94,30.27,5.0,NE,5.8,-,N/A,,Overcast,50,2013-11-06 14:35:00
9:55 AM,62.6,60.8,94,30.27,4.0,NNE,8.1,-,N/A,Rain,Light Rain,20,2013-11-06 14:55:00
10:15 AM,64.4,62.6,94,30.27,7.0,NE,8.1,-,N/A,,Mostly Cloudy,40,2013-11-06 15:15:00
10:35 AM,64.4,60.8,88,30.26,7.0,NE,5.8,-,N/A,,Mostly Cloudy,50,2013-11-06 15:35:00
10:55 AM,64.4,60.8,88,30.26,7.0,NNE,5.8,-,N/A,,Overcast,20,2013-11-06 15:55:00
11:15 AM,64.4,60.8,88,30.27,4.0,Calm,Calm,-,N/A,Rain,Light Rain,0,2013-11-06 16:15:00
11:35 AM,64.4,62.6,94,30.26,3.0,NE,3.5,-,N/A,Rain,Light Rain,40,2013-11-06 16:35:00
11:55 AM,64.4,62.6,94,30.25,5.0,Calm,Calm,-,N/A,,Overcast,0,2013-11-06 16:55:00
12:15 PM,68.0,62.6,83,30.23,7.0,NNE,8.1,-,N/A,,Overcast,20,2013-11-06 17:15:00
12:35 PM,69.8,62.6,78,30.21,5.0,NE,6.9,-,N/A,,Haze,40,2013-11-06 17:35:00
12:55 PM,69.8,62.6,78,30.20,5.0,NNE,8.1,-,N/A,,Haze,30,2013-11-06 17:55:00
1:15 PM,71.6,62.6,73,30.19,7.0,NNE,8.1,-,N/A,,Mostly Cloudy,30,2013-11-06 18:15:00
1:35 PM,71.6,62.6,73,30.18,5.0,NE,8.1,-,N/A,,Haze,40,2013-11-06 18:35:00
1:55 PM,71.6,62.6,73,30.17,7.0,NNE,5.8,-,N/A,,Clear,30,2013-11-06 18:55:00
2:15 PM,73.4,62.6,69,30.17,5.0,NNE,10.4,-,N/A,,Haze,30,2013-11-06 19:15:00
2:35 PM,73.4,62.6,69,30.16,7.0,NE,5.8,-,N/A,,Clear,40,2013-11-06 19:35:00
2:55 PM,71.6,62.6,73,30.16,7.0,NE,6.9,-,N/A,,Clear,40,2013-11-06 19:55:00
3:15 PM,73.4,64.4,73,30.15,7.0,NE,5.8,-,N/A,,Scattered Clouds,40,2013-11-06 20:15:00
3:35 PM,71.6,64.4,78,30.15,5.0,NE,5.8,-,N/A,,Haze,40,2013-11-06 20:35:00
3:55 PM,73.4,64.4,73,30.15,4.0,NE,5.8,-,N/A,,Haze,40,2013-11-06 20:55:00
4:15 PM,71.6,64.4,78,30.15,5.0,East,5.8,-,N/A,,Haze,80,2013-11-06 21:15:00
4:35 PM,71.6,64.4,78,30.14,5.0,East,3.5,-,N/A,,Haze,90,2013-11-06 21:35:00
4:55 PM,71.6,64.4,78,30.14,7.0,East,3.5,-,N/A,,Overcast,80,2013-11-06 21:55:00
5:15 PM,69.8,64.4,83,30.14,7.0,East,5.8,-,N/A,,Overcast,80,2013-11-06 22:15:00
5:35 PM,69.8,64.4,83,30.14,7.0,Calm,Calm,-,N/A,,Overcast,0,2013-11-06 22:35:00
5:55 PM,69.8,64.4,83,30.14,7.0,ENE,3.5,-,N/A,,Overcast,70,2013-11-06 22:55:00
6:15 PM,69.8,64.4,83,30.14,7.0,East,6.9,-,N/A,,Overcast,90,2013-11-06 23:15:00
6:35 PM,69.8,64.4,83,30.14,7.0,ENE,4.6,-,N/A,,Overcast,70,2013-11-06 23:35:00
6:55 PM,68.0,64.4,88,30.14,7.0,ENE,4.6,-,N/A,,Mostly Cloudy,70,2013-11-06 23:55:00
7:15 PM,68.0,64.4,88,30.14,7.0,Calm,Calm,-,N/A,,Mostly Cloudy,0,2013-11-07 00:15:00
7:35 PM,68.0,64.4,88,30.14,7.0,NNE,5.8,-,N/A,,Mostly Cloudy,20,2013-11-07 00:35:00
7:55 PM,68.0,64.4,88,30.13,7.0,Calm,Calm,-,N/A,,Overcast,0,2013-11-07 00:55:00
8:15 PM,68.0,64.4,88,30.14,7.0,NNW,3.5,-,N/A,,Overcast,340,2013-11-07 01:15:00
8:35 PM,68.0,64.4,88,30.13,7.0,North,3.5,-,N/A,,Overcast,360,2013-11-07 01:35:00
8:55 PM,68.0,64.4,88,30.13,7.0,Calm,Calm,-,N/A,,Overcast,0,2013-11-07 01:55:00
9:15 PM,68.0,64.4,88,30.13,7.0,Calm,Calm,-,N/A,,Mostly Cloudy,0,2013-11-07 02:15:00
9:35 PM,68.0,64.4,88,30.13,7.0,Calm,Calm,-,N/A,,Mostly Cloudy,0,2013-11-07 02:35:00
9:55 PM,68.0,64.4,88,30.12,10.0,NW,3.5,-,N/A,,Mostly Cloudy,320,2013-11-07 02:55:00
10:15 PM,68.0,64.4,88,30.12,7.0,Calm,Calm,-,N/A,,Overcast,0,2013-11-07 03:15:00
10:35 PM,68.0,64.4,88,30.11,7.0,NNW,3.5,-,N/A,,Overcast,330,2013-11-07 03:35:00
10:55 PM,68.0,64.4,88,30.11,7.0,North,3.5,-,N/A,,Overcast,360,2013-11-07 03:55:00
11:15 PM,66.2,64.4,94,30.10,7.0,NE,6.9,-,N/A,,Overcast,40,2013-11-07 04:15:00
11:35 PM,66.2,64.4,94,30.10,7.0,Calm,Calm,-,N/A,,Mostly Cloudy,0,2013-11-07 04:35:00
11:55 PM,66.2,64.4,94,30.08,10.0,North,3.5,-,N/A,,Scattered Clouds,360,2013-11-07 04:55:00